Probability
0 0 0 0 0 0 0 0 0 0 0 0 0 0 0 0 0 0 0 0 0 0 0 0 0 0 0 0 0 0 0 0 0 0 0 0 0 0 0 0 0 0 0 0
0 0 0 0 0 0 0 0 0 0 0 0 0 0 0 0 0 0 0 0 0 0 0 0 0 0 0 0 0 0 0 0 0 0 0 0 0 0 0 0 0 0 0 0
0 0 0 0 0 0 0 0 0 0 0 0 0 0 0 0 0 0 0 0 0 0 0 0 0 0 0 0 0 0 0 0 0 0 0 0 0 0 0 0 0 0 0 0
0 0 0 0 0 0 0 0 0 0 0 0 0 0 0 0 0 0 0 0 0 0 0 0 0 0 0 0 0 0 0 0 0 0 0 0 0 0 0 0 0 0 0 0
0 0 0 0 0 0 0 0 0 0 0 0 0 0 0 0 0 0 0 0 0 0 0 0 0 0 0 0 0 0 0 0 0 0 0 0 0 0 0 0 0 0 0 0
0 0 0 0 0 0 0 0 0 0 0 0 0 0 0 0 0 0 0 0 0 0 0 0 0 0 0 0 0 0 0 0 0 0 0 0 0 0 0 0 0 0 0 0
0 0 0 0 0 0 0 0 0 0 0 0 0 0 0 0 0 0 0 0 0 0 0 0 0 0 0 0 0 0 0 0 0 0 0 0 0 0 0 0 0 0 0 0
0 0 0 0 0 0 0 0 0 0 0 0 0 0 0 0 0 0 0 0 0 0 0 0 0 0 0 0 0 0 0 0 0 0 0 0 0 0 0 0 0 0 0 0
0 0 0 0 0 0 0 0 0 0 0 0 0 0 0 0 0 0 0 0 0 0 0 0 0 0 0 0 0 0 0 0 0 0 0 0 0 0 0 0 0 0 0 0
0 0 0 0 0 0 0 0 0 0 0 0 0 0 0 0 0 0 0 0 0 0 0 0 0 0 0 0 0 0 0 0 0 0 0 0 0 0 0 0 0 0 0 0
0 0 0 0 0 0 0 0 0 0 0 0 0 0 0 0 0 0 0 0 0 0 0 0 0 0 0 0 0 0 0 0 0 0 0 0 0 0 0 0 0 0 0 0
0 0 0 0 0 0 0 0 0 0 0 0 0 0 0 0 0 0 0 0 0 0 0 0 0 0 0 0 0 0 0 0 0 0 0 0 0 0 0 0 0 0 0 0
0 0 0 0 0 0 0 0 0 0 0 0 0 0 0 0 0 0 0 0 0 0 0 0 0 0 0 0 0 0 0 0 0 0 0 0 0 0 0 0 0 0 0 0
0 0 0 0 0 0 0 0 0 0 0 0 0 0 0 0 0 0 0 0 0 0 0 0 0 0 0 0 0 0 0 0 0 0 0 0 0 0 0 0 0 0 0 0
0 0 0 0 0 0 0 0 0 0 0 0 0 0 0 0 0 0 0 0 0 0 0 0 0 0 0 0 0 0 0 0 0 0 0 0 0 0 0 0 0 0 0 0
0 0 0 0 0 0 0 0 0 0 0 0 0 0 0 0 0 0 0 0 0 0 0 0 0 0 0 0 0 0 0 0 0 0 0 0 0 0 0 0 0 0 0 0
0 0 0 0 0 0 0 0 0 0 0 0 0 0 0 0 0 0 0 0 0 0 0 0 0 0 0 0 0 0 0 0 0 0 0 0 0 0 0 0 0 0 0 0
0 0 0 0 0 0 0 0 0 0 0 0 0 0 0 0 0 0 0 0 0 0 0 0 0 0 0 0 0 0 0 0 0 0 0 0 0 0 0 0 0 0 0 0
0 0 0 0 0 0 0 0 0 0 0 0 0 0 0 0 0 0 0 0 0 0 0 0 0 0 0 0 0 0 0 0 0 0 0 0 0 0 0 0 0 0 0 0
0 0 0 0 0 0 0 0 0 0 0 0 0 0 0 0 0 0 0 0 0 0 0 0 0 0 0 0 0 0 0 0 0 0 0 0 0 0 0 0 0 0 0 0
0 0 0 0 0 0 0 0 0 0 0 0 0 0 0 0 0 0 0 0 0 0 0 0 0 0 0 0 0 0 0 0 0 0 0 0 0 0 0 0 0 0 0 0
0 0 0 0 0 0 0 0 0 0 0 0 0 0 0 0 0 0 0 0 0 0 0 0 0 0 0 0 0 0 0 0 0 0 0 0 0 0 0 0 0 0 0 0
0 0 0 0 0 0 0 0 0 0 0 0 0 0 0 0 0 0 0 0 0 0 0 0 0 0 0 0 0 0 0 0 0 0 0 0 0 0 0 0 0 0 0 0
0 0 0 0 0 0 0 0 0 0 0 0 0 0 0 0 0 0 0 0 0 0 0 0 0 0 0 0 0 0 0 0 0 0 0 0 0 0 0 0 0 0 0 0
0 0 0 0 0 0 0 0 0 0 0 0 0 0 0 0 0 0 0 0 0 0 0 0 0 0 0 0 0 0 0 0 0 0 0 0 0 0 0 0 0 0 0 0
0 0 0 0 0 0 0 0 0 0 0 0 0 0 0 0 0 0 0 0 0 0 0 0 0 0 0 0 0 0 0 0 0 0 0 0 0 0 0 0 0 0 0 0
Wind_Speed
4 5 1 2 2 2 5 5 3 1 1 1 1 4 5 3 3 3 3 3 2 3 2 1 1 2 3 4 4 4 5 5 4 3 3 3 3 3 3 4 5 5 5 5
5 1 2 1 3 5 5 5 2 0 2 1 1 5 6 4 4 5 5 4 4 3 2 1 1 2 2 3 3 4 4 4 4 3 2 1 1 2 2 3 5 5 5 5
5 1 1 4 4 4 2 4 4 3 1 2 2 6 4 3 3 3 3 4 4 4 3 2 1 1 2 3 3 3 3 3 4 4 3 3 2 2 2 4 4 5 5 5
2 1 2 4 2 3 2 2 5 4 2 1 1 5 7 3 3 4 5 4 4 4 3 2 1 1 1 2 2 2 3 3 4 3 3 3 3 2 3 3 3 4 5 5
1 1 2 3 1 3 3 3 5 3 3 1 0 2 8 1 4 7 7 6 5 5 4 4 3 2 1 1 1 2 2 3 4 3 3 2 3 2 3 3 4 4 4 5
2 1 1 2 2 3 5 5 5 4 3 2 3 4 8 5 7 6 6 6 6 5 4 4 3 2 1 1 1 2 2 3 3 3 3 2 2 3 4 4 4 4 4 4
1 1 1 2 4 2 3 5 3 4 3 5 2 3 10 6 6 6 6 7 6 5 4 4 3 2 1 1 1 1 1 2 3 3 3 2 2 2 2 3 3 4 4 4
4 2 2 1 3 5 3 4 6 5 4 4 2 7 9 4 4 4 4 5 4 5 4 5 5 4 3 2 1 1 1 2 2 2 2 2 3 2 2 2 2 3 3 4
6 3 1 1 0 5 5 2 2 5 1 2 6 7 9 3 3 3 3 4 5 5 5 5 5 4 4 3 3 2 1 1 2 2 2 2 3 2 2 3 2 3 3 4
5 4 1 1 2 2 2 5 4 4 3 4 6 5 6 5 6 4 4 6 6 5 5 5 4 4 3 3 3 2 1 1 1 1 1 1 2 2 3 3 3 3 4 4
3 5 1 1 3 5 3 3 3 3 4 4 4 8 6 7 6 6 7 6 6 6 6 5 4 4 3 3 2 2 1 1 1 1 1 1 2 2 2 3 3 4 4 4
3 5 2 3 1 1 2 4 6 5 4 4 3 10 3 4 4 5 6 6 5 6 5 5 4 3 3 3 3 2 2 1 1 1 1 1 2 2 2 3 3 4 4 4
5 6 3 3 2 1 3 4 4 4 4 4 5 10 3 1 2 4 5 5 5 5 4 4 4 4 4 4 3 3 3 2 1 0 0 1 1 2 2 3 3 4 4 4
5 4 6 8 5 5 5 5 6 6 5 6 10 9 7 5 5 5 5 5 5 5 5 5 5 5 5 4 4 3 3 2 1 1 1 1 1 2 2 3 3 3 4 4
4 4 3 2 0 2 5 7 10 11 10 10 9 10 12 9 8 7 5 5 5 6 6 7 7 6 5 5 4 4 3 2 2 2 1 2 2 1 2 2 3 3 3 4
3 4 2 2 1 2 5 9 11 12 10 11 10 14 10 7 5 6 7 7 8 9 9 8 8 7 7 7 6 4 4 3 2 2 2 1 1 1 2 2 3 3 3 4
5 6 4 3 2 2 11 13 15 10 11 11 17 16 5 5 8 10 9 9 10 10 9 9 9 9 8 7 7 6 5 3 3 2 2 1 1 1 2 2 2 3 3 4
7 6 3 2 2 9 10 4 11 12 12 14 12 8 8 10 8 7 8 10 10 9 9 8 8 7 6 5 5 4 4 4 3 3 2 1 1 1 2 2 2 3 3 3
6 8 5 4 4 11 10 5 8 10 12 14 18 15 8 4 3 7 8 10 10 9 8 7 6 6 5 5 6 5 4 4 3 3 3 3 2 2 2 2 3 3 2 3
3 4 6 5 5 10 8 3 5 4 9 8 14 15 9 6 4 9 5 7 8 6 5 5 4 4 5 5 6 6 5 5 5 5 4 3 3 3 3 3 3 2 2 3
6 4 6 7 8 13 8 5 7 6 10 4 10 11 10 11 11 5 3 4 4 4 4 4 5 5 6 6 6 6 6 6 5 4 3 3 3 3 3 2 2 2 2 3
13 11 10 8 8 15 7 11 12 11 3 3 5 7 9 9 6 4 3 4 4 4 4 5 5 5 4 6 7 6 7 5 4 3 3 3 3 2 2 2 2 1 1 2
12 13 11 14 14 6 10 11 8 3 4 4 4 5 6 6 6 5 5 5 5 5 5 4 5 5 4 5 7 7 6 4 4 4 3 3 2 2 2 2 2 1 1 1
7 4 5 7 12 8 9 8 7 6 7 5 4 4 6 6 6 6 5 5 5 5 5 5 5 5 5 5 5 6 5 5 5 5 4 3 3 2 2 2 2 2 2 2
9 8 6 9 9 6 9 13 12 9 7 6 5 5 7 7 7 7 6 6 6 6 5 5 7 7 6 5 5 5 5 6 5 5 4 3 3 3 2 2 2 3 3 2
9 12 13 13 10 9 9 8 9 9 10 10 8 7 7 8 9 7 7 6 6 6 5 5 6 6 6 5 5 5 5 6 6 5 4 4 3 3 2 2 2 3 3 4
Wind_Direction
30 69 122 211 179 138 137 135 149 226 336 87 205 253 263 242 216 226 230 230 240 254 275 314 3 16 22 22 22 18 12 6 13 12 7 7 11 7 11 11 5 6 2 0
58 31 250 137 110 98 114 126 138 54 38 96 289 276 264 231 219 220 217 223 231 247 277 295 2 22 14 9 11 11 6 5 10 10 0 347 343 351 1 5 6 3 3 1
141 213 164 114 110 114 102 157 163 161 44 45 349 299 263 246 215 221 216 214 222 225 234 248 281 339 359 359 355 356 354 2 7 10 16 15 17 353 359 360 358 355 358 360
105 344 107 106 114 132 171 154 138 135 113 311 31 292 283 243 253 236 228 222 227 230 225 224 228 292 324 317 336 344 352 5 8 16 23 27 21 360 336 334 342 348 355 353
124 74 104 116 129 125 140 107 104 103 106 20 296 230 281 283 254 246 232 225 226 221 216 216 215 221 251 295 332 336 355 12 13 18 23 29 19 354 342 346 353 354 354 356
93 49 92 129 79 115 129 88 65 54 66 279 217 190 272 231 227 239 226 222 218 212 213 214 209 195 225 334 345 350 7 9 10 14 15 22 10 359 358 353 352 350 350 351
52 21 22 107 99 61 112 105 46 1 356 254 185 215 252 243 225 218 219 218 210 203 204 207 206 203 221 260 304 331 9 359 360 5 6 0 350 356 357 340 340 344 344 342
153 227 223 162 158 159 176 146 158 195 229 275 222 237 254 249 243 230 218 205 195 199 206 209 207 204 212 222 235 282 329 336 348 353 348 354 355 357 345 337 337 333 325 325
162 191 33 64 57 136 143 178 147 124 84 287 263 274 291 253 246 222 202 191 200 204 207 208 205 202 208 216 221 224 234 303 333 342 352 360 356 354 341 336 335 324 323 326
142 138 343 336 76 28 138 143 120 135 166 255 281 262 251 240 231 219 210 208 210 206 210 212 208 206 211 215 220 217 208 231 278 332 343 351 342 344 340 342 339 333 332 336
118 125 47 71 189 182 140 147 141 136 164 177 263 267 229 219 212 213 222 218 211 210 212 214 214 207 204 204 204 206 212 235 297 319 329 341 342 346 345 344 336 333 334 337
136 118 158 235 239 241 189 183 159 166 215 201 224 268 272 221 226 217 227 226 217 212 212 212 211 206 203 208 211 210 213 224 250 266 308 320 338 352 350 337 331 336 336 336
140 122 96 351 316 261 223 205 185 144 136 176 201 261 300 284 255 234 229 231 221 214 211 208 208 211 213 214 215 215 215 222 233 224 278 328 338 341 331 327 332 338 336 334
119 135 174 196 211 176 198 200 181 160 182 212 225 249 277 265 253 248 237 229 222 220 214 211 216 217 216 213 212 214 220 215 205 191 215 279 297 304 314 325 332 333 333 333
125 172 211 247 320 170 207 202 193 203 207 211 232 231 249 242 237 238 233 224 223 228 224 219 217 216 213 211 213 210 218 212 194 191 215 256 285 312 334 334 333 335 338 334
132 152 145 277 281 247 257 232 212 221 226 237 257 263 250 241 226 233 229 221 225 229 227 224 219 214 212 210 209 207 212 209 190 196 217 245 310 332 329 326 334 339 336 333
152 141 147 247 300 346 264 221 201 207 211 200 228 242 219 226 223 224 226 223 225 229 227 222 218 215 212 207 200 202 204 192 183 200 215 226 255 290 300 320 336 332 326 330
149 140 141 144 94 240 245 183 190 210 229 216 235 245 223 229 239 237 221 215 225 226 224 221 216 213 209 197 189 187 180 179 184 196 211 220 229 260 292 309 312 315 319 318
160 148 139 150 219 272 283 210 176 195 251 219 227 241 238 239 307 272 226 213 220 220 218 213 206 198 189 186 181 171 176 179 185 202 213 221 222 238 261 277 289 300 310 310
132 138 142 157 194 239 250 193 167 137 273 225 207 224 213 161 221 257 219 205 216 214 206 197 182 172 178 183 169 171 183 187 203 211 214 215 216 221 237 258 278 297 300 302
164 169 183 190 223 257 245 155 134 176 244 219 195 207 187 192 215 231 171 191 203 207 202 182 172 181 189 173 165 181 191 207 209 198 198 209 216 223 232 251 276 297 305 312
175 175 189 175 210 248 190 151 188 216 228 189 190 195 196 213 232 239 224 217 207 207 200 182 180 191 182 169 171 188 208 208 180 177 193 209 218 223 223 239 271 291 296 302
199 191 185 194 214 235 174 198 214 198 210 210 201 205 193 208 226 227 229 227 221 212 204 187 183 188 186 180 180 195 207 176 166 175 197 209 216 224 222 224 238 263 270 283
231 199 188 233 251 240 226 238 237 220 222 225 213 201 185 208 225 230 232 227 220 212 202 187 180 193 203 192 193 201 185 165 168 186 198 197 199 217 227 230 222 224 235 251
203 177 201 241 257 271 249 229 232 232 233 237 231 215 208 212 230 227 230 227 219 211 200 189 194 204 210 193 197 194 177 166 177 190 196 198 200 202 216 229 230 233 237 235
189 184 190 222 216 207 235 226 212 217 227 226 223 230 224 211 224 226 230 226 213 209 200 201 205 207 206 193 199 192 179 174 177 189 196 198 197 200 205 220 274 268 257 276